Latest Coastal Weather Observations for Maroochydore

IDQ60701

Issued at 3:45 am EST Monday 21 April 2014 (issued every 10 minutes, with the page automatically refreshed every 10 minutes)

About coastal observations | Map of coastal stations | Coastal observations for QLD | Marine services | Other Formats
Station Details ID: 040861 Name: SUNSHINE COAST AIRPORT Lat: -26.60 Lon: 153.09 Height: 3.3 m
Data from the previous 72 hours. | See also: Recent months at Maroochydore
Date/Time
EST
Temp

°C
Wind Pressure Rain
since 9am
mm
Weather Cloud Vis
km
Sea
Height
m
Swell
Dir
 
Speed
knots
Gust
knots
hPa Trend Height
m
Period
s
Dir
21/03:30am 14.6 W 1 6 1018.3 - 0.2 - - 10 - - - -
21/03:00am 14.8 CALM 0 0 1018.2 - 0.2 - - 10 - - - -
21/02:30am 14.7 CALM 0 0 1018.1 - 0.2 - - 10 - - - -
21/02:00am 15.1 CALM 0 0 1018.3 - 0.2 - - 10 - - - -
21/01:30am 15.5 CALM 0 0 1018.3 - 0.2 - - 10 - - - -
21/01:00am 15.1 CALM 0 0 1018.5 - 0.2 - - 10 - - - -
21/12:30am 15.7 WSW 1 5 1018.6 - 0.2 - - 10 - - - -
 
Date/Time
EST
Temp

°C
Wind Pressure Rain
since 9am
mm
Weather Cloud Vis
km
Sea
Height
m
Swell
Dir
 
Speed
knots
Gust
knots
hPa Trend Height
m
Period
s
Dir
20/11:30pm 16.0 W 3 4 1018.8 - 0.2 - - 10 - - - -
20/11:00pm 16.2 W 4 5 1018.9 - 0.2 - - 10 - - - -
20/10:30pm 16.5 W 4 4 1018.9 - 0.2 - - 10 - - - -
20/10:00pm 16.6 W 4 5 1019.0 - 0.2 - - 10 - - - -
20/09:30pm 16.8 W 5 6 1018.9 - 0.2 - - 10 - - - -
20/09:00pm 17.0 W 5 6 1018.8 - 0.2 - - 10 - - - -
20/08:30pm 17.5 W 4 5 1018.6 - 0.2 - - 10 - - - -
20/08:00pm 18.6 W 5 7 1018.4 - 0.2 - - 10 - - - -
20/07:30pm 20.6 NNW 6 11 1018.2 - 0.2 - - 10 - - - -
20/07:00pm 22.3 NNE 9 11 1017.8 - 0.2 - - 10 - - - -
20/06:30pm 22.2 NNE 8 11 1017.6 - 0.2 - - 10 - - - -
20/06:00pm 22.4 NE 8 9 1017.2 - 0.2 - - 10 - - - -
20/05:30pm 22.6 NE 7 10 1017.0 - 0.2 - - 10 - - - -
20/05:00pm 23.6 ENE 7 9 1016.7 - 0.2 - - 10 - - - -
20/04:30pm 24.4 ENE 7 9 1016.3 - 0.2 - - 10 - - - -
20/04:00pm 24.9 E 8 10 1016.0 - 0.2 - Partly cloudy 10 - - - -
20/03:30pm 25.5 E 8 10 1016.0 - 0.2 - - 10 - - - -
20/03:00pm 25.5 E 8 11 1015.9 - 0.2 - - 10 - - - -
20/02:30pm 25.5 E 10 11 1016.0 - 0.2 - - 10 - - - -
20/02:00pm 25.5 E 9 12 1015.9 - 0.2 - - 10 - - - -
20/01:30pm 25.6 E 9 11 1016.0 - 0.2 - Partly cloudy 10 - - - -
20/01:00pm 24.8 E 8 11 1016.3 - 0.2 - Partly cloudy 10 - - - -
20/12:30pm 25.3 E 8 10 1016.7 - 0.2 - - 10 - - - -
20/12:00pm 25.6 E 8 10 1017.1 - 0.2 - - 10 - - - -
20/11:30am 25.3 E 9 11 1017.5 - 0.2 - - 10 - - - -
20/11:00am 25.3 E 8 10 1017.9 - 0.2 - - 10 - - - -
20/10:30am 26.6 ENE 5 7 1018.2 - 0.2 - - 10 - - - -
20/10:00am 25.4 E 4 5 1018.2 - 0.0 - - 10 - - - -
20/09:30am 24.1 S 1 4 1018.4 - 0.0 - - 10 - - - -
20/09:00am 22.8 S 3 5 1018.4 - 0.0 - - 10 - - - -
20/08:30am 20.5 SSW 3 4 1018.3 - 0.0 - - 10 - - - -
20/08:00am 18.7 W 3 4 1018.2 - 0.0 - - 10 - - - -
20/07:30am 16.7 W 4 5 1017.9 - 0.0 - - 10 - - - -
20/07:00am 14.9 WSW 3 4 1017.8 - 0.0 - - 10 - - - -
20/06:30am 13.7 SW 4 4 1017.4 - 0.0 - - 10 - - - -
20/06:00am 12.8 W 4 5 1017.0 - 0.0 - - 10 - - - -
20/05:30am 12.9 W 6 6 1016.5 - 0.0 - - 10 - - - -
20/05:00am 13.0 W 5 6 1016.2 - 0.0 - - 10 - - - -
20/04:30am 13.4 WSW 5 6 1016.0 - 0.0 - - 10 - - - -
20/04:00am 13.3 W 5 6 1015.6 - 0.0 - - 10 - - - -
20/03:30am 13.6 W 6 6 1015.5 - 0.0 - - 10 - - - -
20/03:00am 13.7 W 5 6 1015.7 - 0.0 - - 10 - - - -
20/02:30am 13.4 W 6 6 1015.7 - 0.0 - - 10 - - - -
20/02:00am 13.6 W 5 7 1015.7 - 0.0 - - 10 - - - -
20/01:30am 13.8 W 5 6 1015.9 - 0.0 - - 10 - - - -
20/01:00am 13.9 W 5 6 1016.2 - 0.0 - - 10 - - - -
20/12:30am 14.1 W 4 5 1016.3 - 0.0 - - 10 - - - -
20/12:00am 14.4 WSW 4 5 1016.5 - 0.0 - - 10 - - - -
 
Date/Time
EST
Temp

°C
Wind Pressure Rain
since 9am
mm
Weather Cloud Vis
km
Sea
Height
m
Swell
Dir
 
Speed
knots
Gust
knots
hPa Trend Height
m
Period
s
Dir
19/11:30pm 14.7 W 4 5 1016.4 - 0.0 - - 10 - - - -
19/11:00pm 14.8 W 5 6 1016.5 - 0.0 - - 10 - - - -
19/10:30pm 14.9 SW 4 5 1016.5 - 0.0 - - 10 - - - -
19/10:00pm 15.7 SW 5 7 1016.5 - 0.0 - - 10 - - - -
19/09:30pm 15.0 WSW 3 5 1016.2 - 0.0 - - 10 - - - -
19/09:00pm 15.8 WSW 4 5 1016.2 - 0.0 - - 10 - - - -
19/08:30pm 16.0 W 4 5 1016.0 - 0.0 - - 10 - - - -
19/08:00pm 16.1 NW 4 5 1015.8 - 0.0 - - 10 - - - -
19/07:30pm 17.0 WNW 4 5 1015.5 - 0.0 - - 10 - - - -
19/07:00pm 17.7 WNW 6 7 1015.2 - 0.0 - - 10 - - - -
19/06:30pm 20.2 NE 5 6 1014.7 - 0.0 - - 10 - - - -
19/06:00pm 22.2 ENE 6 8 1014.4 - 0.0 - - 10 - - - -
19/05:30pm 22.3 ENE 6 7 1014.2 - 0.0 - - 10 - - - -
19/05:00pm 23.4 NE 7 8 1013.9 - 0.0 - - 10 - - - -
19/04:30pm 24.7 ENE 7 9 1013.6 - 0.0 - - 10 - - - -
19/04:00pm 25.4 E 7 8 1013.5 - 0.0 - - 10 - - - -
19/03:30pm 25.7 ESE 8 11 1013.4 - 0.0 - - 10 - - - -
19/03:00pm 26.2 ESE 8 10 1013.4 - 0.0 - - 10 - - - -
19/02:30pm 26.0 E 9 11 1013.5 - 0.0 - - 10 - - - -
19/02:00pm 26.5 ESE 9 12 1013.6 - 0.0 - - 10 - - - -
19/01:30pm 26.1 ESE 10 13 1013.6 - 0.0 - - 10 - - - -
19/01:00pm 26.5 ESE 10 12 1013.9 - 0.0 - - 10 - - - -
19/12:30pm 27.9 SSW 8 14 1014.4 - 0.0 - - 10 - - - -
19/12:00pm 27.9 SW 8 13 1014.9 - 0.0 - - 10 - - - -
19/11:30am 27.8 WSW 10 13 1015.4 - 0.0 - - 10 - - - -
19/11:00am 27.2 SW 10 13 1015.8 - 0.0 - - 10 - - - -
19/10:30am 27.3 SSW 9 13 1016.2 - 0.0 - - 10 - - - -
19/10:00am 26.6 SW 9 13 1016.5 - 0.0 - - 10 - - - -
19/09:30am 25.3 SW 7 10 1016.7 - 0.0 - - 10 - - - -
19/09:00am 22.9 W 5 7 1016.9 - 0.2 - - 10 - - - -
19/08:30am 20.1 W 6 7 1016.9 - 0.2 - - 10 - - - -
19/08:00am 18.4 WNW 6 7 1016.8 - 0.2 - - 10 - - - -
19/07:30am 17.3 WNW 4 6 1016.6 - 0.2 - - 10 - - - -
19/07:00am 16.1 WNW 5 7 1016.5 - 0.2 - - 10 - - - -
19/06:41am 15.5 WNW 5 6 1016.4 - 0.2 - - 10 - - - -
19/06:30am 14.6 WNW 6 7 1016.4 - 0.2 - - 5 - - - -
19/06:00am 13.9 W 4 5 1016.2 - 0.2 - - 0.3 - - - -
19/05:32am 14.7 W 3 4 1016.1 - 0.0 - - 5 - - - -
19/05:30am 15.0 W 3 4 1016.1 - 0.0 - - 7 - - - -
19/05:00am 15.0 WNW 5 6 1015.8 - 0.0 - - 10 - - - -
19/04:30am 15.2 WNW 5 7 1015.7 - 0.0 - - 10 - - - -
19/04:00am 14.8 W 6 7 1015.6 - 0.0 - - 10 - - - -
19/03:57am 14.9 W 6 7 1015.6 - 0.0 - - 10 - - - -
19/03:30am 15.3 W 3 4 1015.5 - 0.0 - - 2 - - - -
19/03:16am 15.3 W 4 5 1015.5 - 0.0 - - 5 - - - -
19/03:00am 15.7 W 4 5 1015.5 - 0.0 - - 10 - - - -
19/02:30am 15.6 W 5 6 1015.7 - 0.0 - - 10 - - - -
19/02:00am 16.1 WNW 6 7 1015.7 - 0.0 - - 10 - - - -
19/01:30am 16.1 WNW 6 7 1015.9 - 0.0 - - 10 - - - -
19/01:00am 16.0 WNW 4 5 1016.0 - 0.0 - - 10 - - - -
19/12:40am 16.4 WNW 5 6 1016.1 - 0.0 - - 10 - - - -
19/12:30am 16.1 WNW 4 5 1016.2 - 0.0 - - 5 - - - -
19/12:20am 16.1 W 3 4 1016.3 - 0.0 - - 5 - - - -
19/12:00am 16.5 W 3 4 1016.3 - 0.0 - - 10 - - - -
 
Date/Time
EST
Temp

°C
Wind Pressure Rain
since 9am
mm
Weather Cloud Vis
km
Sea
Height
m
Swell
Dir
 
Speed
knots
Gust
knots
hPa Trend Height
m
Period
s
Dir
18/11:30pm 17.1 WNW 5 6 1016.3 - 0.0 - - 10 - - - -
18/11:00pm 17.3 WNW 7 8 1016.4 - 0.0 - - 10 - - - -
18/10:30pm 17.3 WNW 7 8 1016.4 - 0.0 - - 10 - - - -
18/10:00pm 17.3 WNW 7 7 1016.3 - 0.0 - - 10 - - - -
18/09:30pm 17.6 WNW 6 7 1016.3 - 0.0 - - 10 - - - -
18/09:00pm 17.9 WNW 5 6 1016.2 - 0.0 - - 10 - - - -
18/08:30pm 18.1 WNW 5 6 1016.1 - 0.0 - - 10 - - - -
18/08:00pm 18.4 NW 4 5 1016.0 - 0.0 - - 10 - - - -
18/07:30pm 18.7 NW 5 6 1015.7 - 0.0 - - 10 - - - -
18/07:00pm 19.3 N 5 5 1015.4 - 0.0 - - 10 - - - -
18/06:30pm 20.2 N 4 5 1015.0 - 0.0 - - 10 - - - -
18/06:00pm 21.5 NE 6 7 1014.7 - 0.0 - - 10 - - - -
18/05:30pm 22.3 NE 7 9 1014.4 - 0.0 - - 10 - - - -
18/05:00pm 23.0 ENE 7 8 1014.1 - 0.0 - - 10 - - - -
18/04:30pm 23.9 ENE 7 8 1013.9 - 0.0 - - 10 - - - -
18/04:00pm 24.5 ENE 8 11 1013.7 - 0.0 - - 10 - - - -
18/03:30pm 24.8 ENE 8 11 1013.4 - 0.0 - - 10 - - - -
18/03:00pm 24.7 ENE 10 11 1013.3 - 0.0 - - 10 - - - -
18/02:30pm 25.1 E 9 11 1013.5 - 0.0 - - 10 - - - -
18/02:00pm 25.6 ENE 9 11 1013.8 - 0.0 - - 10 - - - -
18/01:30pm 25.5 ENE 9 10 1014.0 - 0.0 - - 10 - - - -
18/01:00pm 25.1 E 9 11 1014.0 - 0.0 - - 10 - - - -
18/12:30pm 25.1 E 9 11 1014.5 - 0.0 - - 10 - - - -
18/12:00pm 25.1 ESE 8 11 1014.9 - 0.0 - - 10 - - - -
18/11:30am 25.1 E 7 10 1015.6 - 0.0 - - 10 - - - -
18/11:00am 24.8 E 7 9 1016.2 - 0.0 - Partly cloudy 10 - - - -
18/10:30am 24.2 E 7 10 1016.6 - 0.0 - - 10 - - - -
18/10:00am 24.7 S 5 6 1016.8 - 0.0 - - 10 - - - -
18/09:30am 23.6 WSW 4 6 1017.0 - 0.0 - - 10 - - - -
18/09:00am 22.8 SSE 6 9 1017.2 - 0.0 - - 10 - - - -
18/08:30am 20.4 SSW 5 6 1017.2 - 0.0 - Partly cloudy 10 - - - -
18/08:00am 18.8 W 4 5 1017.1 - 0.0 - Partly cloudy 10 - - - -
18/07:30am 18.3 W 4 5 1017.1 - 0.0 - Cloudy 10 - - - -
18/07:00am 16.9 S 4 5 1016.8 - 0.0 - Partly cloudy 10 - - - -
18/06:30am 15.7 W 4 5 1016.7 - 0.0 - - 10 - - - -
18/06:00am 15.5 W 4 5 1016.4 - 0.0 - Mostly clear 10 - - - -
18/05:30am 15.6 W 4 6 1016.4 - 0.0 - Partly cloudy 10 - - - -
18/05:00am 15.4 WSW 3 4 1016.4 - 0.0 - - 10 - - - -
18/04:30am 15.7 WSW 4 5 1016.3 - 0.0 - - 10 - - - -
18/04:00am 15.8 W 4 5 1016.2 - 0.0 - Partly cloudy 10 - - - -

Other Formats:

Comma delimited format used in spreadsheet applications
http://www.bom.gov.au/fwo/IDQ60701/IDQ60701.94569.axf

JavaScript Object Notation format (JSON) in row-major order
http://www.bom.gov.au/fwo/IDQ60701/IDQ60701.94569.json